[[{"header":{"parameterUnit":"m.s-1","parameterCategory":1,"la1":30.2992,"la2":30.254,"lo1":-89.0895,"lo2":-89.0443,"dy":0.0025,"dx":0.0025,"nx":19,"ny":19,"refTime":"2026-03-13T21:00:00:Z","depth":0,"parameterNumber":2,"parameterNumberName":"U-component_of_WINDS"},"data":[0,0,0,-0.3889,-0.3888,-0.3876,-0.3876,-0.3858,-0.3858,0,0,0,0,0,0,0,0,0,0,0,-0.3892,-0.3891,-0.3889,-0.3888,-0.3876,-0.3876,-0.3858,-0.3858,0,0,0,0,0,0,0,0,0,0,0,-0.3892,-0.3892,-0.3891,-0.3888,-0.3876,-0.3876,-0.3858,-0.3868,0,0,0,0,0,0,0,0,0,0,-0.3881,-0.3883,-0.3892,-0.3891,-0.3888,-0.3876,-0.3876,-0.3869,-0.3868,-0.3863,0,-0.3859,0,-0.3858,-0.3857,-0.3857,0,0,0,-0.3889,-0.3883,-0.3881,-0.3891,-0.3888,-0.3876,-0.3882,-0.3868,-0.3867,-0.3862,-0.3859,-0.3858,-0.3858,-0.3857,-0.3856,-0.3829,-0.3829,0,0,-0.389,-0.3889,-0.3882,-0.388,-0.3882,-0.3882,-0.3881,-0.3867,-0.3864,-0.3859,-0.3858,-0.3858,-0.3856,-0.3856,-0.3829,-0.3829,0,0,0,-0.3891,-0.3889,-0.3887,-0.3881,-0.3878,-0.3882,-0.3881,-0.3865,-0.3864,-0.3858,-0.3857,-0.3856,-0.3856,-0.3829,-0.3829,-0.382,0,0,0,-0.3892,-0.389,-0.3887,-0.3887,-0.3879,-0.3871,-0.3878,-0.3865,-0.3864,-0.3857,-0.3856,-0.3856,-0.383,-0.3829,-0.3821,-0.3816,0,0,0,-0.3893,-0.389,-0.3888,-0.3887,-0.3881,-0.3872,-0.387,-0.3865,-0.3863,-0.3857,-0.3856,-0.383,-0.3829,-0.3822,-0.3817,-0.3809,0,0,0,-0.3893,-0.388,-0.3888,-0.3873,-0.3881,-0.3866,-0.387,-0.3859,-0.3852,-0.3856,-0.383,-0.3829,-0.3822,-0.3818,-0.381,-0.3802,-0.3799,0,0,-0.3876,-0.3878,-0.3869,-0.3876,-0.386,-0.3868,-0.3851,-0.3845,-0.3846,-0.3835,-0.3834,-0.3821,-0.3817,-0.3809,-0.3781,-0.3778,0,0,0,-0.3864,-0.3857,-0.3853,-0.3847,-0.3843,-0.3839,-0.3836,-0.3834,-0.3825,-0.384,-0.3816,-0.3814,-0.3809,-0.3806,-0.3803,-0.38,-0.3828,-0.3828,-0.3828,-0.3837,-0.3839,-0.3825,-0.3825,-0.3819,-0.3816,-0.3811,-0.3809,-0.3812,-0.3806,-0.3803,-0.3785,-0.3781,-0.3779,-0.3776,-0.3799,-0.3799,-0.3799,-0.3799,-0.3812,-0.3804,-0.3809,-0.3797,-0.3799,-0.3789,-0.3787,-0.3789,-0.378,-0.3788,-0.3784,-0.3792,-0.3777,-0.3773,-0.3798,-0.3798,-0.3798,-0.3798,-0.3798,-0.3796,-0.3792,-0.379,-0.3781,-0.3774,-0.3775,-0.3766,-0.3768,-0.377,-0.3766,-0.3763,-0.3763,-0.3764,-0.3764,-0.3764,-0.3764,-0.3764,-0.3764,-0.3764,-0.3779,-0.3777,-0.377,-0.3765,-0.3761,-0.3757,-0.3755,-0.3751,-0.3748,-0.375,-0.375,-0.3754,-0.3775,-0.378,-0.3763,-0.3763,-0.3763,-0.3763,-0.3763,-0.3754,-0.376,-0.3748,-0.3745,-0.3739,-0.3733,-0.3735,-0.3728,-0.3725,-0.3721,-0.3726,-0.3741,-0.3743,-0.3745,-0.375,-0.3726,-0.3726,-0.3726,-0.3726,-0.374,-0.3741,-0.373,-0.3724,-0.3719,-0.372,-0.3708,-0.3706,-0.3706,-0.3705,-0.3708,-0.3714,-0.3716,-0.3717,-0.372,-0.3724,-0.3694,-0.3694,-0.3694,-0.3724,-0.3725,-0.3714,-0.3714,-0.371,-0.3706,-0.3695,-0.3689,-0.3689,-0.3693,-0.3704,-0.3705,-0.3715,-0.3718,-0.3721,-0.3725,-0.3733,0,0]},{"header":{"parameterUnit":"m.s-1","parameterCategory":1,"la1":30.2992,"la2":30.254,"lo1":-89.0895,"lo2":-89.0443,"dy":0.0025,"dx":0.0025,"nx":19,"ny":19,"refTime":"2026-03-13T21:00:00:Z","depth":0,"parameterNumber":3,"parameterNumberName":"V-component_of_WINDS"},"data":[0,0,0,0.8408,0.8408,0.84,0.84,0.8394,0.8394,0,0,0,0,0,0,0,0,0,0,0,0.8412,0.8412,0.8408,0.8408,0.84,0.84,0.8394,0.8394,0,0,0,0,0,0,0,0,0,0,0,0.8412,0.8412,0.8412,0.8408,0.84,0.84,0.8394,0.8399,0,0,0,0,0,0,0,0,0,0,0.8406,0.841,0.8412,0.8412,0.8408,0.84,0.84,0.8399,0.8399,0.8399,0,0.8399,0,0.8396,0.8394,0.8394,0,0,0,0.8407,0.841,0.8407,0.8412,0.8408,0.84,0.8404,0.8399,0.8398,0.8398,0.8399,0.8398,0.8396,0.8394,0.8394,0.8396,0.8397,0,0,0.8408,0.8411,0.8408,0.8407,0.8407,0.8404,0.8404,0.8399,0.8399,0.8399,0.8398,0.8396,0.8394,0.8394,0.8396,0.8396,0,0,0,0.841,0.8411,0.8408,0.8407,0.8406,0.8404,0.8403,0.8399,0.8398,0.8398,0.8396,0.8394,0.8394,0.8396,0.8396,0.8401,0,0,0,0.841,0.8412,0.8409,0.841,0.8406,0.8402,0.8404,0.8399,0.8398,0.8396,0.8394,0.8394,0.8396,0.8396,0.8401,0.8403,0,0,0,0.8412,0.8413,0.8412,0.8411,0.8407,0.8402,0.8401,0.8398,0.8397,0.8394,0.8394,0.8396,0.8396,0.8401,0.8403,0.8405,0,0,0,0.8415,0.8416,0.8412,0.8413,0.8407,0.8405,0.8401,0.8399,0.8397,0.8394,0.8396,0.8396,0.8401,0.8403,0.8405,0.8407,0.8408,0,0,0.8418,0.8417,0.8417,0.8413,0.8412,0.8406,0.8407,0.8402,0.8399,0.8398,0.8398,0.8401,0.8403,0.8405,0.8415,0.8416,0,0,0,0.8419,0.842,0.8419,0.8417,0.8414,0.8411,0.8406,0.8405,0.8404,0.8399,0.8403,0.8403,0.8405,0.8405,0.8406,0.8407,0.8397,0.8397,0.8397,0.8428,0.8425,0.8425,0.8421,0.842,0.8415,0.8414,0.8412,0.8408,0.8409,0.8409,0.8415,0.8416,0.8417,0.8418,0.841,0.841,0.841,0.841,0.8433,0.8433,0.8429,0.8428,0.8425,0.8424,0.8421,0.8419,0.8418,0.8415,0.8416,0.8412,0.8418,0.8419,0.841,0.841,0.841,0.841,0.841,0.8438,0.8437,0.8436,0.8434,0.8433,0.8429,0.8429,0.8426,0.8423,0.8424,0.8423,0.8423,0.8423,0.8424,0.8424,0.8424,0.8424,0.8424,0.8424,0.8444,0.8442,0.8442,0.8439,0.8438,0.8437,0.8434,0.8433,0.8431,0.8429,0.8429,0.8426,0.8419,0.8417,0.8425,0.8424,0.8424,0.8424,0.8424,0.8449,0.8448,0.8448,0.8447,0.8444,0.8444,0.8441,0.844,0.8439,0.8439,0.8436,0.8432,0.843,0.8429,0.8428,0.8437,0.8437,0.8437,0.8437,0.8453,0.8453,0.8452,0.8451,0.845,0.8447,0.8448,0.8447,0.8444,0.8444,0.8442,0.844,0.844,0.8438,0.8437,0.8436,0.8447,0.8447,0.8447,0.8457,0.8456,0.8457,0.8454,0.8452,0.8451,0.8452,0.8452,0.8449,0.8447,0.8443,0.8443,0.844,0.8439,0.8436,0.8434,0.8432,0,0]}]]